Location: Augustenthal
(51.7167°N, 10.2833°E)
Time: 00:46:43
(UTC+00:00)

Cosmos 1455 Rocket - Pass Details

Date: 25 September 2021
Orbit: 606 x 628 km, 82.5° (Epoch: 19 October)

Event Time Altitude Azimuth Distance (km) Brightness Sun altitude
Exits shadow 22:13:54 13° 339° (NNW) 1,771 6.0 -38.1°
Drops below altitude 10° 22:14:38 10° 346° (NNW) 1,983 6.4 -38.2°
Sets 22:17:19 0° 2° (N) 2,897 7.3 -38.3°
